TimeEDT,TemperatureF,Dew PointF,Humidity,Sea Level PressureIn,VisibilityMPH,Wind Direction,Wind SpeedMPH,Gust SpeedMPH,PrecipitationIn,Events,Conditions,WindDirDegrees,DateUTC
12:53 AM,46.9,35.1,63,30.11,10.0,Calm,Calm,-,N/A,,Overcast,0,2012-10-07 04:53:00
1:53 AM,46.0,39.9,79,30.12,10.0,Calm,Calm,-,N/A,,Overcast,0,2012-10-07 05:53:00
2:53 AM,45.0,39.0,80,30.10,10.0,Calm,Calm,-,N/A,,Overcast,0,2012-10-07 06:53:00
3:53 AM,45.0,36.0,71,30.08,10.0,NNW,3.5,-,N/A,,Overcast,340,2012-10-07 07:53:00
4:53 AM,44.1,41.0,89,30.09,10.0,Calm,Calm,-,N/A,,Overcast,0,2012-10-07 08:53:00
5:53 AM,45.0,39.9,82,30.09,10.0,Calm,Calm,-,N/A,,Overcast,0,2012-10-07 09:53:00
6:53 AM,44.1,37.0,76,30.09,10.0,Calm,Calm,-,N/A,,Overcast,0,2012-10-07 10:53:00
7:53 AM,44.1,41.0,89,30.10,10.0,Calm,Calm,-,N/A,,Overcast,0,2012-10-07 11:53:00
8:53 AM,44.1,39.0,82,30.12,10.0,Calm,Calm,-,N/A,,Overcast,0,2012-10-07 12:53:00
9:53 AM,45.0,36.0,71,30.13,10.0,WNW,3.5,-,N/A,,Overcast,290,2012-10-07 13:53:00
10:53 AM,46.0,36.0,68,30.12,10.0,Calm,Calm,-,N/A,,Overcast,0,2012-10-07 14:53:00
11:53 AM,46.0,35.1,66,30.12,10.0,Calm,Calm,-,N/A,,Overcast,0,2012-10-07 15:53:00
12:53 PM,46.0,37.0,71,30.12,10.0,NW,5.8,-,N/A,,Overcast,310,2012-10-07 16:53:00
1:53 PM,46.0,36.0,68,30.12,10.0,West,3.5,-,0.00,,Overcast,270,2012-10-07 17:53:00
2:53 PM,45.0,36.0,71,30.13,10.0,Variable,5.8,-,0.00,Rain,Light Rain,0,2012-10-07 18:53:00
3:05 PM,44.6,35.6,71,30.10,10.0,West,5.8,-,0.00,Rain,Light Rain,270,2012-10-07 19:05:00
3:25 PM,44.6,35.6,71,30.10,10.0,West,9.2,-,0.01,Rain,Light Rain,270,2012-10-07 19:25:00
3:53 PM,45.0,36.0,71,30.13,10.0,SW,6.9,-,0.01,Rain,Light Rain,220,2012-10-07 19:53:00
4:53 PM,45.0,36.0,71,30.13,10.0,WSW,8.1,-,0.00,Rain,Light Rain,250,2012-10-07 20:53:00
5:53 PM,45.0,37.0,74,30.14,10.0,West,6.9,-,0.00,,Overcast,270,2012-10-07 21:53:00
6:53 PM,43.0,36.0,76,30.17,10.0,West,5.8,-,N/A,,Partly Cloudy,280,2012-10-07 22:53:00
7:39 PM,42.8,35.6,76,30.15,10.0,West,3.5,-,N/A,,Mostly Cloudy,280,2012-10-07 23:39:00
7:46 PM,42.8,35.6,76,30.15,10.0,West,3.5,-,N/A,,Scattered Clouds,280,2012-10-07 23:46:00
7:53 PM,42.1,36.0,79,30.18,10.0,Calm,Calm,-,N/A,,Mostly Cloudy,0,2012-10-07 23:53:00
8:53 PM,41.0,36.0,82,30.20,10.0,Calm,Calm,-,N/A,,Clear,0,2012-10-08 00:53:00
9:53 PM,39.0,36.0,89,30.21,10.0,Calm,Calm,-,N/A,,Clear,0,2012-10-08 01:53:00
10:53 PM,37.9,36.0,93,30.21,10.0,South,4.6,-,N/A,,Clear,190,2012-10-08 02:53:00
11:53 PM,37.0,35.1,93,30.21,10.0,South,3.5,-,0.01,,Clear,170,2012-10-08 03:53:00